Regional Weather Roundup
Issued by NWS

Home | Current Version | Previous Version | Text Only | Print | Product List | Glossary On
Versions: 1 2 3 4 5 6 7 8 9 10 11 12 13 14 15 16 17 18 19 20 21 22 23 24 25 26 27 28 29 30 31 32 33 34 35 36 37 38 39 40 41 42 43 44 45 46 47 48 49 50
707
ASUS43 KLSX 180607
RWRMO

WEATHER SUMMARY FOR MISSOURI
NATIONAL WEATHER SERVICE SPRINGFIELD MO
1200 AM CST WED JAN 18 2017

NOTE: "FAIR" INDICATES FEW OR NO CLOUDS BELOW 12,000 FEET WITH NO
       SIGNIFICANT WEATHER AND/OR OBSTRUCTIONS TO VISIBILITY.
       CURRENT SKY AND/OR WEATHER CONDITIONS ARE NOT AVAILABLE FOR
       CHILLICOTHE AND FARMINGTON.

MOZ001>031-035>038-043-044-053-054-180700-
...NORTHERN AND WESTERN MISSOURI...

CITY           SKY/WX    TMP DP  RH WIND       PRES   REMARKS
KANSAS CTY INT CLOUDY    30  28  92 S7        30.15S FOG     WCI  23
6HR MIN TEMP:  27; 6HR MAX TEMP:  34;

KANSAS C DTWN  CLOUDY    33  32  96 SW6       30.16F WCI  28
6HR MIN TEMP:  28; 6HR MAX TEMP:  38;

LEE`S SUMMIT   CLOUDY    34  32  92 S10       30.17S WCI  26
6HR MIN TEMP:  32; 6HR MAX TEMP:  38;

ST JOSEPH      FOG       25  25 100 CALM      30.16R VSB 1/4
6HR MIN TEMP:  23; 6HR MAX TEMP:  31;

CHILLICOTHE      N/A     33  30  88 CALM      30.18F
6HR MIN TEMP:  33; 6HR MAX TEMP:  37;

KIRKSVILLE     CLOUDY    35  31  85 W8        30.16S WCI  29
6HR MIN TEMP:  35; 6HR MAX TEMP:  37;


$$
MOZ066>068-077>081-088>096-101>105-180700-
...SOUTHWEST MISSOURI...

CITY           SKY/WX    TMP DP  RH WIND       PRES   REMARKS
SPRINGFIELD    CLOUDY    37  35  92 W7        30.19F FOG
6HR MIN TEMP:  36; 6HR MAX TEMP:  38;

JOPLIN         CLOUDY    39  37  92 SW7       30.22S
6HR MIN TEMP:  38; 6HR MAX TEMP:  39;

BRANSON        CLOUDY    37  37 100 NW6       30.21S

$$
MOZ032>034-039>042-045>050-055>058-069>072-180700-
...CENTRAL MISSOURI...

CITY           SKY/WX    TMP DP  RH WIND       PRES   REMARKS
COLUMBIA       CLOUDY    37  34  89 W6        30.18S
6HR MIN TEMP:  37; 6HR MAX TEMP:  38;

JEFFERSON CITY CLOUDY    39  34  82 SW8       30.21R
6HR MIN TEMP:  39; 6HR MAX TEMP:  40;

ROLLA          CLOUDY    37  35  92 W9        30.18R
6HR MIN TEMP:  37; 6HR MAX TEMP:  37;

SEDALIA        CLOUDY    38  34  85 SW7       30.20R
6HR MIN TEMP:  37; 6HR MAX TEMP:  39;

WHITEMAN AFB   MOCLDY    32  32 100 SW8       30.18R WCI  25
WARRENSBURG    CLOUDY    36  34  93 S7        30.19R WCI  30
OSAGE BEACH    CLOUDY    38  34  85 W5        30.21R

$$
MOZ051-052-059>065-180700-
...EAST CENTRAL MISSOURI...

CITY           SKY/WX    TMP DP  RH WIND       PRES   REMARKS
ST LOUIS INTL  CLOUDY    41  35  79 W9        30.17S
6HR MIN TEMP:  41; 6HR MAX TEMP:  42;

SPIRIT OF STL  CLOUDY    40  37  89 W8        30.18R
6HR MIN TEMP:  40; 6HR MAX TEMP:  41;

ST CHARLES     CLOUDY    39  37  92 W9        30.17R
6HR MIN TEMP:  39; 6HR MAX TEMP:  41;


$$
MOZ072>076-082>087-097>100-106>115-180700-
...SOUTH CENTRAL AND SOUTHEAST MISSOURI...

CITY           SKY/WX    TMP DP  RH WIND       PRES   REMARKS
CAPE GIRARDEAU CLOUDY    44  38  79 NW6       30.18S
6HR MIN TEMP:  44; 6HR MAX TEMP:  45;

FARMINGTON     CLOUDY    39  36  89 NW5       30.18S
6HR MIN TEMP:  38; 6HR MAX TEMP:  42;

POPLAR BLUFF   CLOUDY    44  39  82 NW8       30.19S
6HR MIN TEMP:  44; 6HR MAX TEMP:  45;

WEST PLAINS    CLOUDY    38  36  92 NW3       30.20R
6HR MIN TEMP:  38; 6HR MAX TEMP:  41;


$$



USA.gov is the U.S. government's official web portal to all federal, state and local government web resources and services.